| time (UTC) | temp C | wind direction | speed KPH | gust KPH | rain 1hr cm | rain 24hr cm | rain mn cm | humidity % | barometer mb |
| 20260904111846 | 21 | 271 | 8.0 | 29.0 | 0.00 | 0.05 | 0.05 | 1 | 1011.5 |
| 20260904110903 | 21 | 304 | 8.0 | 29.0 | 0.00 | 0.05 | 0.05 | 1 | 1011.7 |
| 20260904105906 | 21 | 273 | 6.4 | 19.3 | 0.00 | 0.05 | 0.05 | 1 | 1011.4 |
| 20260904103730 | 20 | 267 | 3.2 | 16.1 | 0.00 | 0.05 | 0.05 | 1 | 1011.0 |
| 20260904102720 | 20 | 274 | 1.6 | 11.3 | 0.00 | 0.05 | 0.05 | 1 | 1011.2 |
| 20260904101701 | 20 | 291 | 3.2 | 14.5 | 0.00 | 0.05 | 0.05 | 1 | 1011.0 |
| 20260904100645 | 19 | 286 | 3.2 | 14.5 | 0.00 | 0.05 | 0.05 | 1 | 1011.1 |
| 20260904095641 | 20 | 300 | 3.2 | 17.7 | 0.00 | 0.05 | 0.05 | 1 | 1011.3 |
| 20260904094641 | 20 | 300 | 4.8 | 19.3 | 0.08 | 0.05 | 0.05 | 1 | 1011.3 |
| 20260904092456 | 21 | 300 | 12.9 | 30.6 | 0.00 | 0.00 | 0.00 | 1 | 1010.8 |
| 20260904091426 | 22 | 266 | 14.5 | 33.8 | 0.00 | 0.00 | 0.00 | 1 | 1010.4 |
| 20260904090449 | 22 | 254 | 17.7 | 35.4 | 0.00 | 0.00 | 0.00 | 1 | 1010.1 |
| 20260904085448 | 23 | 241 | 19.3 | 35.4 | 0.00 | 0.00 | 0.00 | 1 | 1010.1 |
| 20260904083342 | 23 | 269 | 19.3 | 46.7 | 0.00 | 0.00 | 0.00 | 1 | 1009.8 |
| 20260904081144 | 22 | 264 | 17.7 | 40.2 | 0.00 | 0.00 | 0.00 | 1 | 1009.6 |
| 20260904080111 | 22 | 292 | 19.3 | 48.3 | 0.00 | 0.00 | 0.00 | 1 | 1009.7 |
| 20260904075052 | 22 | 268 | 19.3 | 48.3 | 0.00 | 0.00 | 0.00 | 1 | 1009.7 |
| 20260904074103 | 22 | 232 | 16.1 | 37.0 | 0.00 | 0.00 | 0.00 | 1 | 1009.5 |
| 20260904071926 | 21 | 256 | 12.9 | 41.8 | 0.00 | 0.00 | 0.00 | 1 | 1009.8 |
| 20260904070902 | 21 | 263 | 19.3 | 41.8 | 0.00 | 0.00 | 0.00 | 1 | 1009.7 |
| 20260904064916 | 21 | 248 | 19.3 | 38.6 | 0.00 | 0.00 | 0.00 | 1 | 1009.5 |
| 20260904062726 | 21 | 239 | 17.7 | 33.8 | 0.00 | 0.00 | 0.00 | 1 | 1009.6 |
| 20260904061737 | 21 | 267 | 17.7 | 33.8 | 0.00 | 0.00 | 0.00 | 1 | 1009.8 |
| 20260904060725 | 21 | 215 | 14.5 | 32.2 | 0.00 | 0.00 | 0.00 | 1 | 1009.9 |
| 20260904055711 | 21 | 250 | 14.5 | 32.2 | 0.00 | 0.00 | 0.00 | 1 | 1010.1 |
| 20260904054653 | 21 | 227 | 12.9 | 35.4 | 0.00 | 0.00 | 0.00 | 1 | 1010.0 |
| 20260904053717 | 21 | 267 | 16.1 | 35.4 | 0.00 | 0.00 | 0.00 | 1 | 1010.0 |
| 20260904052650 | 21 | 232 | 16.1 | 33.8 | 0.00 | 0.00 | 0.00 | 1 | 1010.0 |
| 20260904051625 | 21 | 255 | 14.5 | 33.8 | 0.00 | 0.00 | 0.00 | 1 | 1010.0 |
| 20260904050631 | 21 | 226 | 16.1 | 35.4 | 0.00 | 0.00 | 0.00 | 1 | 1010.0 |
| 20260904045559 | 21 | 259 | 16.1 | 35.4 | 0.00 | 0.00 | 0.00 | 1 | 1010.1 |
| 20260904044617 | 21 | 241 | 14.5 | 30.6 | 0.00 | 0.00 | 0.00 | 1 | 1010.2 |
| 20260904043627 | 21 | 249 | 14.5 | 30.6 | 0.00 | 0.00 | 0.00 | 1 | 1010.3 |
| 20260904042646 | 21 | 254 | 16.1 | 30.6 | 0.00 | 0.00 | 0.00 | 1 | 1010.1 |
| 20260904040507 | 21 | 222 | 16.1 | 38.6 | 0.00 | 0.00 | 0.00 | 1 | 1010.7 |
| 20260904035518 | 21 | 278 | 16.1 | 38.6 | 0.00 | 0.00 | 0.00 | 1 | 1011.0 |
| 20260904034506 | 21 | 267 | 12.9 | 30.6 | 0.00 | 0.00 | 0.00 | 1 | 1011.1 |
| 20260904033454 | 21 | 227 | 14.5 | 32.2 | 0.00 | 0.00 | 0.00 | 1 | 1011.2 |
| 20260904032437 | 21 | 234 | 14.5 | 35.4 | 0.00 | 0.00 | 0.00 | 1 | 1011.3 |
| 20260904031410 | 21 | 208 | 17.7 | 35.4 | 0.00 | 0.00 | 0.00 | 1 | 1011.4 |
| 20260904030346 | 21 | 217 | 16.1 | 37.0 | 0.00 | 0.00 | 0.00 | 1 | 1011.4 |
| 20260904025343 | 21 | 254 | 16.1 | 37.0 | 0.00 | 0.00 | 0.00 | 1 | 1011.4 |
| 20260904023230 | 21 | 249 | 16.1 | 38.6 | 0.00 | 0.00 | 0.00 | 1 | 1011.7 |
| 20260904022241 | 21 | 254 | 17.7 | 38.6 | 0.00 | 0.00 | 0.00 | 1 | 1011.7 |
| 20260904021220 | 21 | 238 | 17.7 | 37.0 | 0.00 | 0.00 | 0.00 | 1 | 1011.9 |
| 20260904020149 | 21 | 223 | 16.1 | 41.8 | 0.00 | 0.00 | 0.00 | 1 | 1012.0 |
| 20260904015148 | 21 | 255 | 17.7 | 41.8 | 0.00 | 0.00 | 0.00 | 1 | 1012.1 |
| 20260904013059 | 20 | 235 | 12.9 | 37.0 | 0.00 | 0.00 | 0.00 | 1 | 1012.2 |
| 20260904011000 | 20 | 205 | 9.7 | 25.7 | 0.00 | 0.00 | 0.00 | 1 | 1012.5 |
| 20260904005935 | 20 | 217 | 8.0 | 24.1 | 0.00 | 0.00 | 0.00 | 1 | 1012.7 |
| 20260904004914 | 20 | 266 | 9.7 | 24.1 | 0.00 | 0.00 | 0.00 | 1 | 1013.0 |
| 20260904003856 | 20 | 249 | 6.4 | 20.9 | 0.00 | 0.00 | 0.00 | 1 | 1013.3 |
| 20260904002826 | 20 | 246 | 6.4 | 20.9 | 0.00 | 0.00 | 0.00 | 1 | 1013.4 |
| 20260904001851 | 20 | 223 | 8.0 | 20.9 | 0.00 | 0.00 | 0.00 | 1 | 1013.5 |
| 20260903235707 | 20 | 256 | 8.0 | 19.3 | 0.00 | 0.00 | 0.00 | 1 | 1013.9 |
| 20260903234703 | 20 | 267 | 11.3 | 22.5 | 0.00 | 0.00 | 0.00 | 1 | 1013.8 |
| 20260903232558 | 20 | 252 | 9.7 | 25.7 | 0.00 | 0.00 | 0.00 | 1 | 1013.9 |
| 20260903230422 | 20 | 253 | 9.7 | 25.7 | 0.00 | 0.00 | 0.00 | 1 | 1014.0 |
| 20260903225441 | 21 | 244 | 12.9 | 25.7 | 0.00 | 0.00 | 0.00 | 1 | 1014.2 |
| 20260903223242 | 21 | 250 | 11.3 | 25.7 | 0.00 | 0.00 | 0.00 | 1 | 1014.1 |
| 20260903222239 | 21 | 276 | 12.9 | 30.6 | 0.00 | 0.00 | 0.00 | 1 | 1014.2 |
| 20260903221245 | 21 | 266 | 12.9 | 30.6 | 0.00 | 0.00 | 0.00 | 1 | 1014.4 |
| 20260903213930 | 21 | 272 | 11.3 | 27.4 | 0.00 | 0.00 | 0.00 | 1 | 1014.6 |
| 20260903212920 | 21 | 248 | 12.9 | 25.7 | 0.00 | 0.00 | 0.00 | 1 | 1014.8 |
| 20260903211937 | 21 | 277 | 11.3 | 27.4 | 0.00 | 0.00 | 0.00 | 1 | 1014.9 |
| 20260903210911 | 21 | 284 | 12.9 | 27.4 | 0.00 | 0.00 | 0.00 | 1 | 1014.9 |
| 20260903205921 | 21 | 233 | 12.9 | 29.0 | 0.00 | 0.00 | 0.00 | 1 | 1014.9 |
| 20260903204916 | 21 | 190 | 14.5 | 29.0 | 0.00 | 0.00 | 0.00 | 1 | 1014.8 |
| 20260903203912 | 21 | 240 | 12.9 | 29.0 | 0.00 | 0.00 | 0.00 | 1 | 1014.8 |
| 20260903202847 | 21 | 222 | 14.5 | 29.0 | 0.00 | 0.00 | 0.00 | 1 | 1014.6 |
| 20260903200730 | 21 | 253 | 11.3 | 25.7 | 0.00 | 0.00 | 0.00 | 1 | 1015.0 |
| 20260903195713 | 21 | 222 | 11.3 | 24.1 | 0.00 | 0.00 | 0.00 | 1 | 1015.1 |
| 20260903194709 | 21 | 238 | 12.9 | 29.0 | 0.00 | 0.00 | 0.00 | 1 | 1015.1 |
| 20260903193639 | 21 | 209 | 12.9 | 29.0 | 0.00 | 0.00 | 0.00 | 1 | 1015.2 |
| 20260903192657 | 21 | 225 | 11.3 | 25.7 | 0.00 | 0.00 | 0.00 | 1 | 1015.2 |
| 20260903191717 | 21 | 213 | 12.9 | 30.6 | 0.00 | 0.00 | 0.00 | 1 | 1015.1 |
| 20260903190718 | 21 | 229 | 12.9 | 30.6 | 0.00 | 0.00 | 0.00 | 1 | 1015.1 |
| 20260903185701 | 22 | 248 | 12.9 | 24.1 | 0.00 | 0.00 | 0.00 | 1 | 1015.0 |
| 20260903184657 | 22 | 246 | 11.3 | 24.1 | 0.00 | 0.00 | 0.00 | 1 | 1015.0 |
| 20260903183704 | 22 | 236 | 11.3 | 24.1 | 0.00 | 0.00 | 0.00 | 1 | 1015.1 |
| 20260903182723 | 22 | 202 | 11.3 | 24.1 | 0.00 | 0.00 | 0.00 | 1 | 1015.1 |
| 20260903181745 | 23 | 216 | 11.3 | 22.5 | 0.00 | 0.00 | 0.00 | 1 | 1015.0 |
| 20260903180806 | 23 | 259 | 12.9 | 27.4 | 0.00 | 0.00 | 0.00 | 1 | 1015.0 |
| 20260903175752 | 23 | 229 | 12.9 | 29.0 | 0.00 | 0.00 | 0.00 | 1 | 1015.0 |
| 20260903174746 | 23 | 211 | 9.7 | 29.0 | 0.00 | 0.00 | 0.00 | 1 | 1014.8 |
| 20260903173758 | 23 | 236 | 14.5 | 29.0 | 0.00 | 0.00 | 0.00 | 1 | 1014.9 |
| 20260903172810 | 23 | 235 | 12.9 | 38.6 | 0.00 | 0.00 | 0.00 | 1 | 1014.8 |
| 20260903171808 | 24 | 225 | 12.9 | 38.6 | 0.00 | 0.00 | 0.00 | 1 | 1014.8 |
| 20260903165733 | 25 | 201 | 14.5 | 30.6 | 0.00 | 0.00 | 0.00 | 1 | 1015.0 |
| 20260903164709 | 25 | 246 | 16.1 | 30.6 | 0.00 | 0.00 | 0.00 | 1 | 1015.2 |
| 20260903163715 | 25 | 271 | 12.9 | 30.6 | 0.00 | 0.00 | 0.00 | 1 | 1015.3 |
| 20260903162712 | 25 | 267 | 12.9 | 30.6 | 0.00 | 0.00 | 0.00 | 1 | 1015.2 |
| 20260903161657 | 25 | 180 | 12.9 | 25.7 | 0.00 | 0.00 | 0.00 | 1 | 1015.3 |
| 20260903160637 | 26 | 249 | 12.9 | 33.8 | 0.00 | 0.00 | 0.00 | 1 | 1015.5 |
| 20260903155701 | 25 | 241 | 16.1 | 33.8 | 0.00 | 0.00 | 0.00 | 1 | 1015.4 |
| 20260903154652 | 25 | 207 | 14.5 | 33.8 | 0.00 | 0.00 | 0.00 | 1 | 1015.5 |
| 20260903153638 | 25 | 252 | 12.9 | 35.4 | 0.00 | 0.00 | 0.00 | 1 | 1015.5 |
| 20260903152632 | 26 | 252 | 12.9 | 35.4 | 0.00 | 0.00 | 0.00 | 1 | 1015.6 |
| 20260903151637 | 26 | 279 | 12.9 | 33.8 | 0.00 | 0.00 | 0.00 | 1 | 1015.7 |
| 20260903150633 | 25 | 243 | 12.9 | 33.8 | 0.00 | 0.00 | 0.00 | 1 | 1015.5 |
| 20260903145647 | 26 | 254 | 12.9 | 27.4 | 0.00 | 0.00 | 0.00 | 1 | 1015.6 |
| 20260903144622 | 26 | 248 | 9.7 | 25.7 | 0.00 | 0.00 | 0.00 | 1 | 1015.5 |
| 20260903143639 | 26 | 209 | 9.7 | 24.1 | 0.00 | 0.00 | 0.00 | 1 | 1015.6 |
| 20260903142643 | 26 | 262 | 12.9 | 27.4 | 0.00 | 0.00 | 0.00 | 1 | 1015.6 |
| 20260903140524 | 26 | 270 | 12.9 | 29.0 | 0.00 | 0.00 | 0.00 | 1 | 1015.8 |
| 20260903135513 | 26 | 244 | 9.7 | 24.1 | 0.00 | 0.00 | 0.00 | 1 | 1015.7 |
| 20260903134522 | 26 | 223 | 9.7 | 24.1 | 0.00 | 0.00 | 0.00 | 1 | 1015.9 |
| 20260903133507 | 26 | 242 | 11.3 | 24.1 | 0.00 | 0.00 | 0.00 | 1 | 1016.2 |
| 20260903132528 | 26 | 290 | 11.3 | 24.1 | 0.00 | 0.00 | 0.00 | 1 | 1016.3 |
| 20260903131543 | 26 | 246 | 11.3 | 22.5 | 0.00 | 0.00 | 0.00 | 1 | 1016.2 |
| 20260903130543 | 25 | 268 | 8.0 | 25.7 | 0.00 | 0.00 | 0.00 | 1 | 1016.3 |
| 20260903125548 | 25 | 286 | 9.7 | 25.7 | 0.00 | 0.00 | 0.00 | 1 | 1016.5 |
| 20260903124607 | 25 | 291 | 8.0 | 19.3 | 0.00 | 0.00 | 0.00 | 1 | 1016.4 |
| 20260903123626 | 25 | 219 | 9.7 | 24.1 | 0.00 | 0.00 | 0.00 | 1 | 1016.5 |
| 20260903122628 | 25 | 240 | 11.3 | 24.1 | 0.00 | 0.00 | 0.00 | 1 | 1016.5 |
| 20260903121603 | 25 | 252 | 8.0 | 24.1 | 0.00 | 0.00 | 0.00 | 1 | 1016.5 |
| 20260903120547 | 24 | 240 | 9.7 | 24.1 | 0.00 | 0.00 | 0.00 | 1 | 1016.5 |
| 20260903115535 | 24 | 266 | 9.7 | 24.1 | 0.00 | 0.00 | 0.00 | 1 | 1016.4 |
| 20260903114502 | 24 | 247 | 9.7 | 25.7 | 0.00 | 0.00 | 0.00 | 1 | 1016.6 |
| 20260903113510 | 24 | 283 | 11.3 | 25.7 | 0.00 | 0.00 | 0.00 | 1 | 1016.5 |